Regional Weather Roundup
Issued by NWS

Home | Current Version | Previous Version | Graphics & Text | Print | Product List | Glossary On
Versions: 1 2 3 4 5 6 7 8 9 10 11 12 13 14 15 16 17 18 19 20 21 22 23 24 25 26 27 28 29 30 31 32 33 34 35 36 37 38 39 40 41 42 43 44 45 46 47 48 49 50
000
ASUS43 KMKX 210311
RWRWI

WISCONSIN REGIONAL WEATHER ROUNDUP
NATIONAL WEATHER SERVICE MILWAUKEE/SULLIVAN WI
1000 PM CDT SUN APR 20 2014

NOTE: "FAIR" INDICATES FEW OR NO CLOUDS BELOW 12,000 FEET WITH NO
SIGNIFICANT WEATHER AND/OR OBSTRUCTIONS TO VISIBILITY.

WIZ001-002-006>008-014>016-023>028-210400-
NORTHWEST WISCONSIN

CITY           SKY/WX    TMP DP  RH WIND       PRES   REMARKS
SUPERIOR ARPT  FAIR      37  33  82 NE5       29.98S WCI  34
ASHLAND        CLEAR     37  36  96 CALM      30.01F
HAYWARD        CLEAR     45  32  60 E5        30.00S
SIREN          CLEAR     46  34  62 CALM      29.97F
RICE LAKE      CLEAR     58  49  71 E3        30.00R
LADYSMITH      CLEAR     55  51  85 CALM      30.01S
EAU CLAIRE     MOCLDY    58  53  84 SW9       29.96F
MENOMONIE      PTCLDY    57  53  86 E3        29.97F
NEW RICHMOND   CLEAR     59  53  80 CALM      29.97F
OSCEOLA        CLEAR     52  40  62 CALM      29.99S HAZE
$$

WIZ003>005-009-010-017-018-210400-
NORTH CENTRAL WISCONSIN

CITY           SKY/WX    TMP DP  RH WIND       PRES   REMARKS
WOODRUFF       PTCLDY    47  42  83 CALM      30.02F
RHINELANDER    CLOUDY    49  48  97 CALM      30.03S
EAGLE RIVER    CLEAR     42  42  98 CALM      30.02S
LAND O LAKES   PTCLDY    39  33  79 CALM      30.04S
PHILLIPS       MOCLDY    51  49  92 CALM      30.01S
TOMAHAWK       CLOUDY    47  45  95 CALM      30.02S FOG
MEDFORD        CLOUDY    53  52  97 CALM      30.00F FOG
MERRILL        FOG       47  47  99 CALM      30.01S VSB 1/2
$$

WIZ029-030-035-036-043>047-210400-
CENTRAL WISCONSIN

CITY           SKY/WX    TMP DP  RH WIND       PRES   REMARKS
WAUSAU         MOCLDY    55  52  89 S3        29.98F
MOSINEE        NOT AVBL
MARSHFIELD     CLOUDY    55  52  89 SE3       29.99F
STEVENS POINT  CLOUDY    52  51  96 CALM      30.01S
WAUPACA        MOCLDY    55  54  94 CALM      30.01S FOG
WAUTOMA        FOG       54  54 100 N3        30.01S VSB 1/2
WISC RAPIDS    MOCLDY    53  52  96 CALM      30.01F FOG
CAMP DOUGLAS   FOG       50  50 100 CALM      29.99S VSB 1/4
$$

WIZ011>013-019>022-031-037>040-048>050-210400-
NORTHEAST WISCONSIN

CITY           SKY/WX    TMP DP  RH WIND       PRES   REMARKS
ANTIGO         CLOUDY    48  47  99 CALM      30.02S FOG
STURGEON BAY   CLOUDY    48  43  81 S5        30.03S
GREEN BAY      CLOUDY    52  50  93 CALM      30.01F FOG
MANITOWOC      CLOUDY    44  38  79 CALM      30.02F
APPLETON       NOT AVBL
CLINTONVILLE   MOCLDY    52  52 100 CALM      30.01S
OSHKOSH        CLOUDY    53  48  83 CALM      30.00F
$$

WIZ032>034-041-042-053>061-210400-
SOUTHWEST WISCONSIN

CITY           SKY/WX    TMP DP  RH WIND       PRES   REMARKS
LA CROSSE      CLOUDY    55  53  93 CALM      29.97S FOG
SPARTA         MOCLDY    53  52  95 CALM      29.99S
VIROQUA        CLOUDY    57  56  97 CALM      29.98R
BOSCOBEL       CLOUDY    59  55  87 NE3       29.97R
PRAIRIE DU CHI MOCLDY    56  54  94 CALM      29.96R FOG
PLATTEVILLE    FAIR      65  45  48 S9        29.99R
$$

WIZ056-057-062-063-064-067-068-210400-
SOUTH CENTRAL WISCONSIN

CITY           SKY/WX    TMP DP  RH WIND       PRES   REMARKS
BARABOO/DELLS  CLOUDY    55  52  89 CALM      29.99S
LONE ROCK      CLOUDY    59  55  87 NE3       29.98R
WATERTOWN      CLOUDY    61  52  71 CALM      29.98S
MADISON        CLOUDY    60  52  74 NW6       30.00R
MIDDLETON      CLOUDY    60  53  76 E5        29.99S
MONROE         MOCLDY    68  44  42 S10       29.99S
JANESVILLE     MOCLDY    68  37  32 S3        29.98S
$$

WIZ051-052-058>065-066-070>072-210400-
SOUTHEAST WISCONSIN

CITY           SKY/WX    TMP DP  RH WIND       PRES   REMARKS
MILWAUKEE      CLOUDY    62  39  42 S8        30.01S
WAUKESHA       PTCLDY    61  41  48 S5        30.01S
MILWAUKEE/TIMM CLEAR     63  36  36 S6        30.01S
RACINE         PTCLDY    61  38  42 S14       30.03S
BURLINGTON     PTCLDY    62  41  47 SW3       30.00F
KENOSHA        CLEAR     57  40  52 S7        30.01F
FOND DU LAC    CLOUDY    55  48  77 CALM      30.00S
SHEBOYGAN      CLOUDY    51  38  60 SE3       30.01F
WEST BEND      MOCLDY    52  41  66 CALM      30.00F
JUNEAU         CLOUDY    58  45  62 CALM      30.01R
$$

LSZ147-162-210400-
LAKE SUPERIOR

STATION/POSITION TIME  TEMP    WIND        PRES    WAVE
                       AIR SEA DIR/SP/G            HT/PER
                 (UTC) (F)     (DEG/KT/KT) (MB)    (FT/S)
DEVILS ISLAND    0300   53     130/  7/  7 1015.8F
PORT WING        0200   35      CALM  /  2 1015.6
SAXON HARBOR     0240           CALM  /  1 1015.9F
$$

LMZ867-665-643>646-210400-
LAKE MICHIGAN

STATION/POSITION TIME  TEMP    WIND        PRES    WAVE
                       AIR SEA DIR/SP/G            HT/PER
                 (UTC) (F)     (DEG/KT/KT) (MB)    (FT/S)
NORTHPORT PIER   0200   46     190/  4/  7 1016.6S
SISTER BAY       0209   48        CALM       N/A
KEWAUNEE LAKESHO 0200   40      CALM  /  2 1017.6F
SHEBOYGAN LAKESH 0300   43     140/  3/  4 1017.0S
PORT WASHINGTON  0240   45      40/  5/  5 1016.6F
MILWAUKEE LAKESH 0200   52     140/  3/  4   N/A
KENOSHA   LAKESH 0300   53     180/ 14/ 19   N/A
$$

TC  - TEMPERATURE IN CELSIUS
VSB - VISIBILITY IN STATUTE MILES
WCI - WIND CHILL INDEX
HX  - HEAT INDEX




USA.gov is the U.S. government's official web portal to all federal, state and local government web resources and services.